DELTA 1 DEB, 37670

Orbit data source: Space-Track

DELTA 1 DEB, 37670 is space debris in SSO originally from a launch on Sun, 05 Mar 1978 UTC launched from the Air Force Western Test Range (AFWTR). Debris objects in space refer to the collection of defunct objects orbiting the Earth. Examples of debris include non-operational satellites, rocket bodies, and fragments generated from explosions, collisions, or faulty payload assembly.

Loading next visibility...
Identifier
37670, 1978-026KH
Orbit
SSO
Country
Flag of USUS
Related business
Manufacturer
Unknown
Mission
Spacecraft
Bus & Motor
Unknown
Mass
Unknown
Launch date (UTC)
1978-03-05 (48 years ago)
Launch vehicle
Unknown
Launch site
Air Force Western Test Range (AFWTR)
Object type
Payload
Rocket body
Debris
Shape & HBR
Unknown shape, 0.1 m
Radar Cross Section
Small (<0.1 m²)

Expand to show TLE details & history
Last TLE update: 1 week ago

TLE from 1 week ago
0 DELTA 1 DEB
1 37670U 78026KH  26164.52072918  .00000028  00000-0  58303-4 0  9992
2 37670  99.0232  62.9381 0071468 157.6324 202.7976 13.87262474653082
Epoch: 2026-06-13T12:29Z
TLE epoch observation values (Epoch: 2026-06-13T12:29:51.001Z)
Latitude
-0.00003°
Longitude
-26.35904°
Altitude
989.369 km
Speed
7.333 km/s
True Right ascension
04h 11m 45s
True Declination
0° 00' 00"
Sunlit
Object was in daylight at epoch
Visualization orbit readout
Latitude
Unknown
Longitude
Unknown
Altitude
Unknown
Speed
Unknown
Apparent Right ascension
Unknown
Apparent Declination
Unknown
Sunlit
N/A
Visualization observer readout
Local Sidereal Time
00:39:48
Azimuth
Unknown
Elevation
Unknown
Doppler factor
Unknown
Orbital elements
Apogee altitude
987.726 km
Perigee altitude
883.189 km
Semi-major axis
7,313.594 km
Eccentricity
0.00715
Inclination
99.0232°
RAAN
62.9381°
Arg. of periapsis
157.6324°
True anomaly
202.48287°
Mean anomaly
202.7976°
Eccentric anomaly
202.63997°
Mean motion
3.47014 °/min
Orbital period
103.74 mins
BSTAR
0.000058303
Loading maneuver chart data...
Computing Atmospheric mass density...
Loading historical data...
Loading historical data...
Loading historical data...
Loading historical data...
Loading historical data...
Loading historical data...
Loading historical data...

Documentation

Showing up to 5 results
|